Temp
9 9 9 9 9 9 9 9 10 10 10 10 10 10 10 10 10 10 10 11 11 11 11 11 11 11 11 11 11 11 10 9 9 9 9 9 9 9 9 9 8 8 8 8 8
9 9 9 9 9 9 9 9 10 10 10 10 10 10 10 10 10 11 11 11 11 11 11 11 11 10 11 11 11 10 10 10 10 9 9 9 9 9 8 8 8 9 8 8 8
9 9 9 9 9 9 9 9 9 10 10 10 10 10 10 10 10 10 10 10 10 11 11 11 11 11 10 11 10 10 10 10 10 9 9 9 9 9 9 8 8 8 8 8 8
8 9 9 9 8 9 9 9 9 9 9 10 10 10 10 10 10 11 10 10 10 11 11 11 10 10 10 10 10 10 10 10 10 9 9 9 8 9 9 8 8 8 8 8 8
8 8 8 9 9 8 9 9 9 9 9 10 10 10 10 10 10 10 10 10 10 11 11 10 10 10 10 10 10 9 9 9 9 9 9 9 9 9 9 9 8 8 8 8 8
8 8 8 8 9 9 9 9 9 9 10 10 10 9 10 10 10 10 10 10 10 11 11 10 10 9 9 10 9 9 9 9 9 9 9 9 9 9 9 9 9 8 8 7 7
8 8 8 8 8 8 8 8 9 9 9 10 10 9 9 10 10 10 10 10 10 10 10 10 9 9 9 9 9 9 9 9 9 9 9 9 10 10 9 9 9 8 8 8 7
7 8 8 8 8 8 8 8 9 9 9 9 10 10 10 10 9 9 9 9 10 9 9 9 9 9 9 9 9 8 8 8 9 9 9 9 10 9 9 9 9 9 9 9 9
7 7 7 7 8 8 8 8 8 9 9 9 9 9 9 9 9 9 9 9 9 9 8 8 8 8 8 8 8 8 8 8 8 9 8 9 9 9 9 9 10 10 10 9 9
7 7 7 7 8 8 8 8 8 8 8 9 9 9 9 9 9 9 9 9 9 8 8 8 8 8 8 8 8 8 8 8 8 8 8 8 9 9 8 9 10 10 10 9 9
6 6 7 7 7 7 7 7 7 8 8 8 9 9 9 9 9 9 8 8 8 8 7 7 7 8 7 7 7 7 7 7 8 7 8 8 9 10 8 9 11 11 10 9 8
5 5 5 6 6 7 7 6 7 7 8 8 8 8 9 9 9 9 8 8 8 7 7 7 8 7 7 6 6 6 7 7 7 7 6 8 10 10 11 11 11 10 10 9 8
4 4 4 4 5 5 6 6 6 6 7 8 9 9 9 9 9 9 8 8 7 7 7 7 7 7 7 6 6 6 6 6 6 6 6 6 9 10 10 10 10 10 10 9 9
4 4 4 3 4 4 4 5 5 5 5 7 8 9 9 9 8 7 7 7 6 6 6 6 6 7 6 7 7 7 7 6 6 5 4 4 5 9 9 10 10 10 10 9 8
3 3 3 3 3 2 3 3 3 5 -2 6 7 7 8 7 7 7 6 5 5 5 5 6 6 7 6 6 6 6 5 5 4 4 4 6 3 9 9 10 10 9 9 9 8
2 3 3 3 3 2 2 2 2 2 1 6 7 7 7 6 6 6 6 6 5 4 4 5 5 6 6 5 5 5 5 4 3 3 -1 6 4 8 9 9 9 9 9 9 8
1 1 1 2 3 3 2 1 0 1 4 5 6 5 5 6 6 5 5 5 5 4 4 4 5 5 5 5 5 5 4 3 -2 -3 -0 4 1 6 8 8 8 8 8 7 7
0 0 1 1 1 2 1 1 -1 1 3 4 5 4 4 5 4 4 4 5 5 4 4 5 5 6 6 6 5 5 4 4 -1 -2 -0 2 1 7 7 8 8 7 7 6 6
-1 -0 -0 0 0 -0 -0 -2 -1 1 2 4 4 4 4 5 4 4 3 4 5 5 4 5 4 6 6 6 5 4 3 4 3 2 -2 3 5 6 6 7 7 6 6 6 5
-0 -0 -1 -1 -1 -0 -1 -3 -2 -0 1 1 2 2 2 4 4 4 4 4 5 5 5 4 3 4 4 4 4 3 3 2 2 -1 -2 0 2 5 6 6 6 6 5 5 4
-1 -1 -1 -2 -2 -3 -2 -2 -3 -2 -1 -0 1 1 1 1 2 3 3 3 3 4 4 3 2 2 2 3 4 3 1 2 3 2 -3 -3 3 5 5 5 5 5 4 4 3
-4 -3 -3 -2 -3 -3 -2 -3 -3 -3 -2 -1 -1 -0 -0 0 1 1 1 2 3 2 2 3 3 2 2 2 3 3 3 3 2 2 2 1 2 4 4 4 4 4 4 3 2
-6 -5 -5 -4 -3 -3 -3 -3 -3 -2 -3 -2 -2 -1 -1 -1 -1 0 1 1 2 2 1 1 2 1 1 0 -0 1 1 2 2 2 2 -0 2 3 2 2 3 3 3 2 2
-7 -6 -6 -5 -3 -3 -3 -3 -3 -2 -2 -2 -2 -2 -2 -2 -1 -1 -1 -1 -0 -0 0 -0 -1 -0 1 2 2 1 2 2 1 1 1 1 2 2 2 2 2 2 2 1 1
-7 -7 -7 -6 -6 -5 -5 -5 -4 -4 -4 -4 -3 -3 -2 -2 -2 -1 -1 -1 -1 -1 -1 -1 -1 -1 -0 1 0 1 2 1 0 1 -0 2 1 2 2 2 1 0 -0 -0 -1
-8 -8 -8 -7 -7 -7 -7 -7 -7 -6 -6 -6 -6 -6 -6 -5 -5 -5 -4 -4 -4 -3 -2 -2 -2 -2 -2 -1 -1 -1 -0 0 -1 -1 -1 0 1 1 0 -0 -1 -2 -2 -2 -2
-8 -8 -8 -7 -7 -8 -8 -8 -8 -8 -7 -7 -7 -7 -7 -7 -7 -6 -6 -6 -6 -5 -5 -5 -5 -5 -4 -4 -3 -3 -2 -2 -2 -2 -2 -3 -0 -2 -3 -3 -2 -2 -3 -3 -2
Height
3179 3179 3179 3177 3176 3175 3175 3173 3173 3172 3171 3170 3170 3168 3167 3166 3164 3163 3163 3164 3163 3162 3162 3162 3161 3161 3161 3162 3163 3164 3165 3164 3165 3166 3166 3166 3165 3165 3164 3164 3164 3163 3162 3162 3161
3176 3177 3177 3176 3175 3175 3174 3173 3172 3171 3171 3170 3169 3168 3167 3166 3164 3163 3163 3161 3161 3161 3161 3161 3160 3161 3160 3160 3161 3162 3163 3164 3164 3164 3164 3164 3163 3163 3163 3162 3161 3161 3161 3160 3159
3174 3174 3175 3175 3174 3174 3174 3173 3172 3170 3169 3169 3168 3166 3166 3165 3164 3162 3161 3161 3160 3160 3159 3159 3159 3160 3160 3159 3159 3160 3161 3161 3161 3161 3161 3161 3161 3160 3160 3160 3159 3159 3159 3158 3158
3172 3172 3172 3172 3172 3173 3172 3171 3170 3169 3168 3167 3166 3165 3164 3164 3165 3162 3161 3160 3159 3158 3158 3158 3158 3158 3159 3158 3158 3158 3158 3159 3160 3159 3159 3159 3158 3158 3157 3158 3156 3156 3155 3156 3156
3170 3169 3169 3170 3170 3170 3170 3169 3167 3166 3165 3165 3165 3164 3163 3162 3162 3160 3159 3158 3158 3157 3156 3155 3156 3156 3157 3157 3158 3157 3158 3157 3157 3157 3157 3156 3155 3155 3155 3154 3154 3153 3153 3153 3153
3167 3167 3167 3167 3167 3167 3167 3166 3165 3164 3163 3162 3162 3162 3162 3161 3159 3159 3158 3157 3156 3155 3154 3153 3153 3155 3156 3156 3157 3157 3156 3156 3156 3155 3154 3154 3153 3152 3152 3151 3151 3151 3150 3150 3150
3163 3164 3164 3164 3164 3164 3164 3163 3162 3161 3160 3160 3159 3159 3159 3159 3157 3156 3156 3156 3155 3154 3152 3151 3151 3153 3154 3155 3155 3155 3155 3155 3154 3153 3152 3152 3151 3150 3150 3149 3148 3148 3148 3148 3148
3159 3160 3160 3161 3161 3161 3160 3160 3159 3158 3158 3156 3156 3156 3156 3156 3155 3155 3154 3153 3152 3152 3152 3150 3150 3151 3152 3153 3153 3153 3153 3152 3152 3151 3150 3150 3148 3147 3146 3146 3145 3145 3145 3145 3144
3153 3154 3155 3156 3157 3157 3157 3156 3156 3155 3154 3153 3153 3153 3153 3152 3152 3152 3152 3151 3150 3150 3150 3150 3150 3150 3150 3150 3152 3151 3150 3150 3150 3148 3147 3147 3145 3144 3143 3142 3141 3141 3140 3140 3140
3145 3148 3151 3151 3151 3152 3152 3152 3151 3151 3151 3150 3149 3152 3150 3149 3148 3148 3148 3148 3148 3148 3148 3150 3149 3148 3148 3149 3148 3148 3148 3148 3147 3147 3144 3143 3140 3141 3139 3136 3135 3135 3135 3136 3135
3141 3142 3144 3146 3146 3146 3148 3148 3149 3149 3147 3147 3147 3147 3146 3146 3145 3145 3144 3144 3145 3146 3145 3146 3148 3147 3148 3147 3147 3146 3145 3145 3145 3143 3140 3139 3135 3137 3136 3132 3131 3131 3131 3131 3131
3137 3137 3137 3139 3141 3141 3141 3141 3141 3142 3142 3142 3141 3141 3140 3140 3140 3140 3142 3142 3141 3142 3142 3144 3143 3144 3145 3145 3145 3145 3144 3144 3142 3140 3138 3135 3130 3130 3128 3127 3127 3127 3127 3128 3128
3131 3133 3133 3134 3133 3136 3135 3135 3135 3135 3134 3134 3135 3135 3135 3135 3133 3134 3136 3136 3137 3138 3139 3139 3140 3140 3142 3142 3144 3144 3143 3142 3140 3137 3135 3130 3124 3124 3124 3124 3123 3123 3123 3124 3124
3124 3127 3128 3127 3131 3130 3130 3130 3130 3130 3129 3128 3127 3127 3128 3127 3127 3127 3128 3133 3132 3133 3135 3136 3136 3136 3137 3138 3139 3138 3138 3137 3136 3135 3133 3130 3125 3119 3118 3118 3117 3119 3120 3120 3121
3116 3120 3123 3124 3124 3125 3126 3125 3126 3128 3128 3124 3121 3122 3122 3124 3123 3124 3124 3125 3128 3130 3132 3131 3131 3132 3133 3135 3136 3136 3135 3133 3132 3130 3127 3124 3127 3114 3114 3114 3114 3115 3115 3115 3115
3109 3111 3114 3118 3120 3120 3121 3122 3123 3126 3121 3118 3116 3116 3118 3118 3120 3119 3122 3123 3125 3126 3126 3126 3127 3128 3128 3130 3131 3131 3132 3130 3127 3126 3124 3115 3115 3109 3110 3111 3110 3109 3108 3109 3109
3101 3104 3107 3109 3112 3114 3116 3119 3123 3117 3115 3113 3114 3114 3113 3114 3116 3117 3118 3118 3120 3122 3122 3123 3122 3123 3124 3126 3126 3126 3128 3128 3126 3124 3117 3111 3111 3103 3106 3106 3105 3104 3103 3103 3103
3091 3096 3099 3103 3105 3106 3108 3112 3110 3109 3110 3109 3110 3111 3113 3112 3112 3112 3112 3114 3113 3114 3115 3117 3117 3117 3118 3118 3121 3120 3123 3122 3121 3118 3110 3108 3096 3090 3095 3097 3097 3098 3098 3098 3099
3082 3085 3090 3097 3097 3100 3101 3097 3094 3099 3105 3106 3107 3107 3107 3110 3110 3109 3108 3108 3111 3112 3112 3109 3106 3107 3109 3111 3115 3113 3113 3116 3115 3110 3106 3095 3085 3083 3086 3088 3089 3090 3091 3092 3093
3072 3076 3081 3086 3088 3091 3090 3082 3085 3092 3098 3100 3100 3101 3098 3102 3104 3103 3102 3100 3103 3106 3109 3106 3104 3102 3101 3102 3105 3105 3106 3109 3112 3111 3105 3084 3078 3076 3079 3080 3081 3082 3084 3085 3086
3060 3064 3069 3078 3081 3080 3070 3070 3075 3081 3091 3093 3093 3094 3094 3097 3097 3095 3092 3095 3097 3099 3101 3101 3101 3097 3095 3090 3091 3095 3096 3098 3097 3094 3092 3086 3065 3069 3071 3072 3074 3075 3076 3077 3076
3050 3053 3057 3068 3072 3067 3065 3065 3069 3072 3079 3081 3081 3084 3086 3091 3088 3088 3086 3090 3092 3094 3094 3094 3091 3086 3085 3087 3088 3087 3086 3088 3087 3085 3079 3077 3041 3059 3064 3066 3067 3067 3067 3069 3069
3043 3045 3050 3056 3057 3057 3060 3061 3064 3066 3067 3070 3069 3071 3078 3077 3080 3077 3079 3083 3086 3087 3083 3088 3084 3080 3075 3078 3077 3073 3074 3077 3075 3076 3065 3074 3046 3055 3057 3059 3061 3062 3061 3061 3062
3038 3039 3041 3046 3046 3049 3050 3051 3056 3053 3057 3057 3057 3059 3063 3062 3067 3059 3066 3073 3075 3073 3075 3077 3071 3065 3057 3063 3062 3061 3062 3064 3066 3061 3055 3040 3049 3049 3050 3052 3054 3053 3052 3052 3053
3033 3034 3035 3037 3039 3039 3042 3042 3043 3043 3045 3044 3045 3048 3049 3050 3050 3052 3053 3054 3057 3058 3059 3062 3050 3052 3043 3047 3055 3053 3052 3052 3052 3046 3051 3027 3044 3041 3048 3049 3048 3046 3046 3045 3044
3031 3032 3033 3034 3034 3035 3034 3037 3038 3039 3039 3038 3040 3040 3042 3043 3042 3044 3041 3044 3046 3044 3046 3045 3039 3037 3033 3034 3037 3036 3036 3036 3035 3034 3035 3035 3025 3039 3038 3037 3036 3036 3036 3035 3034
3029 3028 3031 3030 3031 3032 3033 3033 3034 3034 3035 3035 3035 3036 3036 3038 3037 3037 3037 3040 3041 3041 3040 3038 3035 3034 3029 3029 3026 3022 3012 3018 3021 3022 3025 3021 3017 3028 3025 3023 3026 3025 3022 3025 3028
Wind_Speed
6 7 8 8 8 7 6 7 8 7 6 6 6 6 6 7 5 6 4 3 2 1 5 3 4 2 2 2 3 5 5 8 3 2 2 3 5 5 8 8 8 11 11 9 9
8 8 9 9 9 9 8 8 8 7 5 4 4 5 5 5 3 5 5 2 2 2 3 3 1 2 3 5 5 5 4 4 3 2 1 3 6 6 8 9 10 9 8 6 7
10 10 10 9 9 10 10 10 10 8 6 4 4 3 4 4 2 5 2 2 2 1 1 2 2 4 5 6 7 7 5 4 3 2 3 6 7 8 8 10 11 9 7 7 6
13 12 11 10 11 11 11 12 11 10 7 5 4 4 4 3 5 4 2 2 3 2 4 4 4 6 8 8 8 9 8 5 3 4 6 7 10 11 10 10 9 8 9 7 8
16 14 12 12 13 13 13 13 13 11 10 7 5 5 5 5 5 5 4 2 3 4 4 5 5 6 8 9 9 9 7 6 5 6 8 8 8 8 8 7 8 8 9 10 9
18 16 15 15 15 15 15 15 14 13 12 10 8 6 6 7 8 6 4 4 5 5 5 5 6 7 8 9 9 8 7 7 7 8 8 7 9 6 6 6 7 8 9 10 11
20 19 18 18 17 16 16 16 16 14 13 11 11 8 8 7 5 4 5 7 6 8 6 7 9 10 9 8 9 9 8 9 9 8 8 7 8 6 8 9 10 12 14 12 12
22 21 20 20 20 18 18 18 17 16 14 13 11 9 9 8 6 5 7 7 7 7 8 9 11 12 11 10 11 10 10 10 9 10 10 8 7 7 10 12 13 14 13 12 12
23 23 22 22 21 20 21 19 19 18 17 15 15 11 10 9 8 8 9 8 9 7 9 12 13 13 12 12 11 12 9 11 11 11 12 11 9 10 13 17 16 14 13 13 11
24 24 24 23 23 22 22 21 21 20 20 18 19 15 11 12 11 12 9 10 9 10 11 15 15 14 14 14 8 10 13 11 11 11 14 17 19 15 18 19 19 16 14 12 13
25 24 25 25 24 23 22 22 22 22 22 20 19 18 18 19 19 16 14 12 11 12 15 17 17 15 12 14 15 10 11 13 13 18 21 19 23 15 16 22 19 15 13 12 14
27 24 23 23 24 24 24 21 22 23 24 22 22 23 22 22 23 20 18 15 15 17 19 19 19 17 15 15 13 12 12 15 17 14 18 19 22 16 18 19 13 14 15 13 14
28 26 24 23 21 23 23 23 23 24 26 28 24 24 24 23 25 22 19 19 18 19 20 22 15 17 18 17 13 14 15 16 18 19 21 22 23 14 10 13 18 15 14 14 15
30 29 27 24 22 21 22 23 23 23 19 21 19 20 19 21 23 20 20 19 21 19 20 19 24 20 16 19 17 17 16 14 18 15 8 16 11 29 22 16 15 13 12 15 13
31 30 28 27 23 21 21 21 21 21 4 7 11 11 13 12 10 9 15 19 21 20 20 15 14 19 23 20 19 17 15 15 16 18 19 22 9 21 15 9 6 10 14 15 16
31 30 29 28 27 24 21 19 18 11 8 7 11 11 11 11 12 13 10 14 19 21 23 24 20 18 18 19 20 19 17 19 20 17 5 20 15 9 10 12 19 15 15 17 19
32 32 29 27 26 26 24 20 12 9 6 9 16 15 14 12 13 13 15 16 16 15 23 26 27 27 24 22 23 22 17 6 4 2 6 8 12 20 21 28 17 18 19 18 21
35 33 33 29 27 26 24 23 17 7 18 11 9 13 13 13 13 16 18 21 22 23 20 11 13 26 29 31 27 19 22 10 8 4 5 10 12 20 23 25 21 21 21 22 23
37 36 33 30 31 28 27 27 16 22 21 25 25 25 26 25 19 17 18 21 21 25 22 12 16 23 25 23 24 22 26 24 17 15 7 14 26 32 28 23 19 22 20 21 23
42 41 37 33 33 32 34 36 21 25 17 22 30 18 15 24 27 24 26 15 16 20 25 20 23 26 24 27 26 32 20 10 13 3 6 8 15 21 27 22 19 20 21 23 24
39 40 40 33 32 33 46 43 42 40 27 26 30 30 26 24 26 29 19 18 16 19 16 20 27 22 24 33 38 34 32 22 20 16 5 4 12 16 17 16 18 18 20 23 24
23 28 31 32 34 41 44 42 45 34 35 36 39 39 37 33 32 33 35 29 14 20 19 20 25 29 39 37 30 35 35 34 26 14 20 18 45 31 31 31 26 21 24 24 25
20 21 20 19 33 40 42 36 38 38 43 41 44 44 41 45 42 46 47 40 35 32 25 23 27 24 26 30 32 38 42 42 42 40 42 15 25 17 19 17 22 23 27 30 31
11 12 18 26 33 28 32 34 34 36 37 39 43 41 39 43 44 51 44 38 39 43 46 38 43 43 43 24 12 33 45 44 48 40 41 56 52 47 35 26 28 30 32 32 31
9 9 12 11 26 25 24 16 18 14 13 14 22 27 25 30 32 40 42 42 45 48 48 40 47 53 65 62 55 51 45 38 42 52 43 64 44 54 46 44 39 33 34 33 24
8 9 8 10 13 17 17 10 15 19 18 18 19 19 18 15 13 20 22 19 20 23 35 38 28 26 46 62 56 59 68 66 53 54 54 57 63 47 44 37 42 42 40 41 41
13 10 9 8 10 12 16 17 16 18 17 17 16 14 17 16 16 17 18 20 20 21 23 24 17 14 10 21 19 22 50 54 51 50 45 48 65 46 40 41 46 45 46 44 35
Wind_Direction
279 303 314 322 326 329 324 333 342 353 6 6 3 16 20 20 35 60 12 355 356 57 11 21 82 104 144 154 189 194 168 167 178 255 314 304 282 277 265 265 273 273 282 294 289
256 278 295 306 313 313 315 319 322 330 343 353 356 13 25 11 70 27 17 61 83 78 15 355 70 204 202 172 185 190 181 173 176 194 249 278 285 282 272 276 279 286 275 281 296
246 260 276 290 301 302 299 304 309 312 321 329 328 348 10 5 334 354 27 111 100 27 349 313 219 216 216 204 184 186 181 176 198 235 303 299 279 275 272 274 280 282 285 279 279
252 258 272 285 289 288 288 294 301 305 306 308 302 309 325 345 333 321 305 242 263 297 302 289 252 225 219 207 199 182 180 188 229 269 291 287 285 283 280 270 283 277 282 286 291
256 262 268 271 277 281 282 289 296 298 299 297 290 289 300 308 309 302 283 254 262 275 279 265 242 229 224 210 196 196 199 202 229 264 281 286 281 282 276 257 257 261 277 287 292
258 262 265 267 270 277 282 289 293 293 294 292 288 289 288 300 307 293 275 284 288 281 267 238 215 210 213 203 197 210 221 236 240 256 276 279 285 272 255 259 252 266 278 286 292
260 262 265 270 272 275 283 286 284 287 291 294 291 290 291 296 272 265 300 308 300 283 251 210 198 196 203 199 209 221 238 246 250 250 261 267 260 252 258 270 268 270 284 284 285
257 261 265 268 272 276 277 279 279 279 282 285 284 284 281 281 234 251 300 297 299 282 244 207 193 195 195 211 213 226 239 242 242 259 258 254 256 255 262 273 276 280 290 287 279
251 256 260 264 270 273 275 277 279 281 282 283 282 276 273 253 225 272 297 295 289 265 237 209 197 197 203 215 223 233 246 243 265 263 267 264 247 266 278 283 285 284 272 277 276
245 254 261 263 266 272 277 279 281 283 282 283 283 280 252 236 240 279 273 288 268 245 220 217 210 212 214 219 226 243 240 257 269 274 275 275 274 268 280 278 283 280 260 258 260
248 248 254 262 267 270 274 280 285 286 282 278 272 268 267 265 272 271 269 270 255 237 221 222 222 227 243 238 243 248 249 270 286 289 286 285 281 286 260 270 278 264 257 246 250
255 254 254 258 266 271 275 279 280 281 281 277 278 278 277 274 274 271 267 260 248 233 225 227 232 234 241 235 244 259 272 288 293 289 287 288 285 294 272 259 257 252 253 246 242
257 257 258 260 262 268 273 278 282 284 288 285 279 276 270 269 267 264 259 255 243 233 230 233 235 236 240 232 248 265 285 294 292 297 292 298 298 298 288 273 271 255 250 241 245
255 257 258 257 261 268 271 276 281 286 299 282 275 266 268 262 260 256 246 238 235 233 230 243 238 240 242 233 241 253 276 281 291 296 291 302 293 293 289 274 266 238 270 248 270
253 256 260 261 260 261 266 271 278 286 340 265 245 252 250 255 255 255 242 232 232 233 226 233 243 237 242 245 245 259 268 277 283 282 283 283 243 288 282 281 266 270 286 267 270
252 250 252 259 263 263 268 271 275 263 243 232 235 235 241 249 250 249 246 237 235 235 236 236 241 238 237 237 238 253 266 287 283 273 270 270 224 227 251 283 295 281 273 268 260
254 255 250 249 252 259 263 266 262 218 208 235 236 244 241 244 247 249 247 239 230 228 243 244 243 246 244 244 247 251 256 287 303 236 233 254 220 247 278 282 273 278 274 264 253
252 252 254 250 249 247 248 249 227 232 211 222 224 239 251 248 263 250 244 242 232 231 239 239 249 249 249 246 252 250 237 215 231 213 253 246 239 268 276 281 275 272 257 251 249
250 249 249 250 252 248 241 230 232 236 226 235 245 251 257 260 262 263 262 256 254 247 232 233 237 251 251 242 236 233 229 245 257 277 278 246 258 266 272 268 272 267 254 250 251
251 249 246 243 244 244 244 235 238 232 233 230 243 247 234 242 253 256 261 264 266 256 258 261 263 250 244 236 229 230 229 210 217 266 261 254 257 260 280 277 264 253 254 243 248
244 245 246 238 237 234 238 240 241 246 230 233 240 242 249 243 243 249 251 246 250 255 248 254 252 262 237 229 235 227 226 222 228 225 205 288 256 268 272 271 276 264 248 239 242
248 242 243 234 227 235 238 245 246 245 250 242 244 244 246 246 252 246 245 244 242 240 249 256 257 257 260 255 248 241 248 246 226 235 233 250 268 271 271 274 271 261 259 256 245
243 240 233 209 228 236 241 248 253 256 257 260 258 254 254 252 253 254 249 248 244 243 247 248 253 261 264 254 243 236 237 240 243 242 244 237 254 267 263 260 279 271 258 253 248
240 232 228 215 219 227 227 234 238 243 241 241 244 248 252 254 252 256 258 260 261 257 257 259 246 236 243 244 246 236 249 247 239 235 244 242 254 257 265 263 268 262 249 243 243
230 232 223 211 233 253 251 249 238 244 220 216 227 234 235 234 233 238 246 251 248 251 256 251 243 246 253 258 253 255 256 253 244 249 235 262 253 269 270 274 264 251 252 242 248
237 219 232 250 253 256 270 273 269 273 278 280 280 287 288 291 280 277 272 273 262 243 244 240 250 249 249 258 258 255 255 259 254 255 254 259 263 263 268 262 247 250 244 245 250
245 241 257 269 264 271 280 284 288 293 299 297 300 296 297 291 277 278 277 274 274 274 281 292 283 290 279 283 287 262 255 256 257 256 253 250 267 264 261 258 257 255 243 254 271